Time,TemperatureF,DewpointF,PressureIn,WindDirection,WindDirectionDegrees,WindSpeedMPH,WindSpeedGustMPH,Humidity,HourlyPrecipIn,Conditions,Clouds,dailyrainin,SolarRadiationWatts/m^2,SoftwareType,DateUTC
2013-04-27 00:02:00,37.0,27.0,-100.00,WSW,252,1.0,2.0,67,0.00,,,0.00,0.000000,,2013-04-27 05:02:00,
2013-04-27 00:22:00,36.0,26.0,-100.00,SSE,147,3.0,5.0,67,0.00,,,0.00,0.000000,,2013-04-27 05:22:00,
2013-04-27 00:32:00,36.0,26.0,-100.00,SSE,147,3.0,5.0,67,0.00,,,0.00,0.000000,,2013-04-27 05:32:00,
2013-04-27 00:42:00,36.0,26.0,-100.00,SSE,147,3.0,5.0,67,0.00,,,0.00,0.000000,,2013-04-27 05:42:00,
2013-04-27 00:52:00,36.0,26.0,-100.00,SSE,147,3.0,5.0,67,0.00,,,0.00,0.000000,,2013-04-27 05:52:00,
2013-04-27 01:02:00,36.0,26.0,-100.00,SSE,147,3.0,5.0,67,0.00,,,0.00,0.000000,,2013-04-27 06:02:00,
2013-04-27 01:22:00,35.0,28.0,-100.00,SSE,154,2.0,4.0,74,0.00,,,0.00,0.000000,,2013-04-27 06:22:00,
2013-04-27 01:32:00,35.0,28.0,-100.00,SSE,154,2.0,4.0,74,0.00,,,0.00,0.000000,,2013-04-27 06:32:00,
2013-04-27 01:42:00,35.0,28.0,-100.00,SSE,154,2.0,4.0,74,0.00,,,0.00,0.000000,,2013-04-27 06:42:00,
2013-04-27 01:52:00,35.0,28.0,-100.00,SSE,154,2.0,4.0,74,0.00,,,0.00,0.000000,,2013-04-27 06:52:00,
2013-04-27 02:01:00,35.0,28.0,-100.00,SSE,154,2.0,4.0,74,0.00,,,0.00,0.000000,,2013-04-27 07:01:00,
2013-04-27 02:22:00,34.0,27.0,-100.00,SE,139,2.0,7.0,75,0.00,,,0.00,0.000000,,2013-04-27 07:22:00,
2013-04-27 02:32:00,34.0,27.0,-100.00,SE,139,2.0,7.0,75,0.00,,,0.00,0.000000,,2013-04-27 07:32:00,
2013-04-27 02:42:00,34.0,27.0,-100.00,SE,139,2.0,7.0,75,0.00,,,0.00,0.000000,,2013-04-27 07:42:00,
2013-04-27 02:52:00,34.0,27.0,-100.00,SE,139,2.0,7.0,75,0.00,,,0.00,0.000000,,2013-04-27 07:52:00,
2013-04-27 03:01:00,34.0,27.0,-100.00,SE,139,2.0,7.0,75,0.00,,,0.00,0.000000,,2013-04-27 08:01:00,
2013-04-27 03:22:00,33.0,27.0,-100.00,SE,139,3.0,5.0,78,0.00,,,0.00,0.000000,,2013-04-27 08:22:00,
2013-04-27 03:33:00,33.0,27.0,-100.00,SE,139,3.0,5.0,78,0.00,,,0.00,0.000000,,2013-04-27 08:33:00,
2013-04-27 03:42:00,33.0,27.0,-100.00,SE,139,3.0,5.0,78,0.00,,,0.00,0.000000,,2013-04-27 08:42:00,
2013-04-27 03:52:00,33.0,27.0,-100.00,SE,139,3.0,5.0,78,0.00,,,0.00,0.000000,,2013-04-27 08:52:00,
2013-04-27 04:01:00,33.0,27.0,-100.00,SE,139,3.0,5.0,78,0.00,,,0.00,0.000000,,2013-04-27 09:01:00,
2013-04-27 04:33:00,31.0,27.0,-100.00,WSW,247,2.0,5.0,84,0.00,,,0.00,0.000000,,2013-04-27 09:33:00,
2013-04-27 04:43:00,31.0,27.0,-100.00,WSW,247,2.0,5.0,84,0.00,,,0.00,0.000000,,2013-04-27 09:43:00,
2013-04-27 04:53:00,31.0,27.0,-100.00,WSW,247,2.0,5.0,84,0.00,,,0.00,0.000000,,2013-04-27 09:53:00,
2013-04-27 05:02:00,31.0,27.0,-100.00,WSW,247,2.0,5.0,84,0.00,,,0.00,0.000000,,2013-04-27 10:02:00,
2013-04-27 05:33:00,30.0,26.0,-100.00,SSE,154,2.0,4.0,84,0.00,,,0.00,0.000000,,2013-04-27 10:33:00,
2013-04-27 05:42:00,30.0,26.0,-100.00,SSE,154,2.0,4.0,84,0.00,,,0.00,0.000000,,2013-04-27 10:42:00,
2013-04-27 05:52:00,30.0,26.0,-100.00,SSE,154,2.0,4.0,84,0.00,,,0.00,0.000000,,2013-04-27 10:52:00,
2013-04-27 06:02:00,30.0,26.0,-100.00,SSE,154,2.0,4.0,84,0.00,,,0.00,0.000000,,2013-04-27 11:02:00,
2013-04-27 06:32:00,29.0,25.0,-100.00,WSW,245,1.0,2.0,86,0.00,,,0.00,1.000000,,2013-04-27 11:32:00,
2013-04-27 06:42:00,29.0,25.0,-100.00,WSW,245,1.0,2.0,86,0.00,,,0.00,1.000000,,2013-04-27 11:42:00,
2013-04-27 06:52:00,29.0,25.0,-100.00,WSW,245,1.0,2.0,86,0.00,,,0.00,1.000000,,2013-04-27 11:52:00,
2013-04-27 07:01:00,29.0,25.0,-100.00,WSW,245,1.0,2.0,86,0.00,,,0.00,1.000000,,2013-04-27 12:01:00,
2013-04-27 07:32:00,32.0,28.0,-100.00,SE,130,3.0,4.0,84,0.00,,,0.00,57.000000,,2013-04-27 12:32:00,
2013-04-27 07:42:00,32.0,28.0,-100.00,SE,130,3.0,4.0,84,0.00,,,0.00,57.000000,,2013-04-27 12:42:00,
2013-04-27 07:52:00,32.0,28.0,-100.00,SE,130,3.0,4.0,84,0.00,,,0.00,57.000000,,2013-04-27 12:52:00,
2013-04-27 08:02:00,32.0,28.0,-100.00,SE,130,3.0,4.0,84,0.00,,,0.00,57.000000,,2013-04-27 13:02:00,
2013-04-27 08:32:00,47.0,34.0,-100.00,SE,137,6.0,7.0,61,0.00,,,0.00,234.000000,,2013-04-27 13:32:00,
2013-04-27 08:42:00,47.0,34.0,-100.00,SE,137,6.0,7.0,61,0.00,,,0.00,234.000000,,2013-04-27 13:42:00,
2013-04-27 08:52:00,47.0,34.0,-100.00,SE,137,6.0,7.0,61,0.00,,,0.00,234.000000,,2013-04-27 13:52:00,
2013-04-27 09:02:00,47.0,34.0,-100.00,SE,137,6.0,7.0,61,0.00,,,0.00,234.000000,,2013-04-27 14:02:00,
2013-04-27 09:32:00,56.0,30.0,-100.00,SSW,201,9.0,12.0,37,0.00,,,0.00,432.000000,,2013-04-27 14:32:00,
2013-04-27 09:42:00,56.0,30.0,-100.00,SSW,201,9.0,12.0,37,0.00,,,0.00,432.000000,,2013-04-27 14:42:00,
2013-04-27 09:52:00,56.0,30.0,-100.00,SSW,201,9.0,12.0,37,0.00,,,0.00,432.000000,,2013-04-27 14:52:00,
2013-04-27 10:01:00,56.0,30.0,-100.00,SSW,201,9.0,12.0,37,0.00,,,0.00,432.000000,,2013-04-27 15:01:00,
2013-04-27 10:33:00,59.0,28.0,-100.00,SSW,203,12.0,17.0,31,0.00,,,0.00,625.000000,,2013-04-27 15:33:00,
2013-04-27 10:43:00,59.0,28.0,-100.00,SSW,203,12.0,17.0,31,0.00,,,0.00,625.000000,,2013-04-27 15:43:00,
2013-04-27 10:53:00,59.0,28.0,-100.00,SSW,203,12.0,17.0,31,0.00,,,0.00,625.000000,,2013-04-27 15:53:00,
2013-04-27 11:03:00,59.0,28.0,-100.00,SSW,203,12.0,17.0,31,0.00,,,0.00,625.000000,,2013-04-27 16:03:00,
2013-04-27 11:23:00,62.0,29.0,-100.00,SW,214,13.0,19.0,29,0.00,,,0.00,790.000000,,2013-04-27 16:23:00,
2013-04-27 11:33:00,62.0,29.0,-100.00,SW,214,13.0,19.0,29,0.00,,,0.00,790.000000,,2013-04-27 16:33:00,
2013-04-27 11:42:00,62.0,29.0,-100.00,SW,214,13.0,19.0,29,0.00,,,0.00,790.000000,,2013-04-27 16:42:00,
2013-04-27 11:53:00,62.0,29.0,-100.00,SW,214,13.0,19.0,29,0.00,,,0.00,790.000000,,2013-04-27 16:53:00,
2013-04-27 12:02:00,62.0,29.0,-100.00,SW,214,13.0,19.0,29,0.00,,,0.00,790.000000,,2013-04-27 17:02:00,
2013-04-27 12:32:00,63.0,29.0,-100.00,SSW,212,13.0,21.0,27,0.00,,,0.00,914.000000,,2013-04-27 17:32:00,
2013-04-27 12:42:00,63.0,29.0,-100.00,SSW,212,13.0,21.0,27,0.00,,,0.00,914.000000,,2013-04-27 17:42:00,
2013-04-27 12:53:00,63.0,29.0,-100.00,SSW,212,13.0,21.0,27,0.00,,,0.00,914.000000,,2013-04-27 17:53:00,
2013-04-27 13:02:00,63.0,29.0,-100.00,SSW,212,13.0,21.0,27,0.00,,,0.00,914.000000,,2013-04-27 18:02:00,
2013-04-27 13:22:00,65.0,29.0,-100.00,SSW,199,13.0,19.0,26,0.00,,,0.00,965.000000,,2013-04-27 18:22:00,
2013-04-27 13:32:00,65.0,29.0,-100.00,SSW,199,13.0,19.0,26,0.00,,,0.00,965.000000,,2013-04-27 18:32:00,
2013-04-27 13:42:00,65.0,29.0,-100.00,SSW,199,13.0,19.0,26,0.00,,,0.00,965.000000,,2013-04-27 18:42:00,
2013-04-27 13:52:00,65.0,29.0,-100.00,SSW,199,13.0,19.0,26,0.00,,,0.00,965.000000,,2013-04-27 18:52:00,
2013-04-27 14:02:00,65.0,29.0,-100.00,SSW,199,13.0,19.0,26,0.00,,,0.00,965.000000,,2013-04-27 19:02:00,
2013-04-27 14:22:00,66.0,28.0,-100.00,SSW,202,13.0,17.0,24,0.00,,,0.00,935.000000,,2013-04-27 19:22:00,
2013-04-27 14:32:00,66.0,28.0,-100.00,SSW,202,13.0,17.0,24,0.00,,,0.00,935.000000,,2013-04-27 19:32:00,
2013-04-27 14:42:00,66.0,28.0,-100.00,SSW,202,13.0,17.0,24,0.00,,,0.00,935.000000,,2013-04-27 19:42:00,
2013-04-27 14:53:00,66.0,28.0,-100.00,SSW,202,13.0,17.0,24,0.00,,,0.00,935.000000,,2013-04-27 19:53:00,
2013-04-27 15:02:00,66.0,28.0,-100.00,SSW,202,13.0,17.0,24,0.00,,,0.00,935.000000,,2013-04-27 20:02:00,
2013-04-27 15:32:00,67.0,29.0,-100.00,SSW,199,14.0,20.0,24,0.00,,,0.00,866.000000,,2013-04-27 20:32:00,
2013-04-27 15:42:00,67.0,29.0,-100.00,SSW,199,14.0,20.0,24,0.00,,,0.00,866.000000,,2013-04-27 20:42:00,
2013-04-27 15:52:00,67.0,29.0,-100.00,SSW,199,14.0,20.0,24,0.00,,,0.00,866.000000,,2013-04-27 20:52:00,
2013-04-27 16:02:00,67.0,29.0,-100.00,SSW,199,14.0,20.0,24,0.00,,,0.00,866.000000,,2013-04-27 21:02:00,
2013-04-27 16:22:00,68.0,28.0,-100.00,SSW,200,13.0,21.0,22,0.00,,,0.00,721.000000,,2013-04-27 21:22:00,
2013-04-27 16:33:00,68.0,28.0,-100.00,SSW,200,13.0,21.0,22,0.00,,,0.00,721.000000,,2013-04-27 21:33:00,
2013-04-27 16:43:00,68.0,28.0,-100.00,SSW,200,13.0,21.0,22,0.00,,,0.00,721.000000,,2013-04-27 21:43:00,
2013-04-27 16:53:00,68.0,28.0,-100.00,SSW,200,13.0,21.0,22,0.00,,,0.00,721.000000,,2013-04-27 21:53:00,
2013-04-27 17:02:00,68.0,28.0,-100.00,SSW,200,13.0,21.0,22,0.00,,,0.00,721.000000,,2013-04-27 22:02:00,
2013-04-27 17:32:00,69.0,27.0,-100.00,SSW,202,11.0,24.0,21,0.00,,,0.00,681.000000,,2013-04-27 22:32:00,
2013-04-27 17:42:00,69.0,27.0,-100.00,SSW,202,11.0,24.0,21,0.00,,,0.00,681.000000,,2013-04-27 22:42:00,
2013-04-27 17:52:00,69.0,27.0,-100.00,SSW,202,11.0,24.0,21,0.00,,,0.00,681.000000,,2013-04-27 22:52:00,
2013-04-27 18:02:00,69.0,27.0,-100.00,SSW,202,11.0,24.0,21,0.00,,,0.00,681.000000,,2013-04-27 23:02:00,
2013-04-27 18:22:00,67.0,29.0,-100.00,South,190,12.0,24.0,24,0.00,,,0.00,329.000000,,2013-04-27 23:22:00,
2013-04-27 18:32:00,67.0,29.0,-100.00,South,190,12.0,24.0,24,0.00,,,0.00,329.000000,,2013-04-27 23:32:00,
2013-04-27 18:42:00,67.0,29.0,-100.00,South,190,12.0,24.0,24,0.00,,,0.00,329.000000,,2013-04-27 23:42:00,
2013-04-27 18:52:00,67.0,29.0,-100.00,South,190,12.0,24.0,24,0.00,,,0.00,329.000000,,2013-04-27 23:52:00,
2013-04-27 19:01:00,67.0,29.0,-100.00,South,190,12.0,24.0,24,0.00,,,0.00,329.000000,,2013-04-28 00:01:00,
2013-04-27 19:22:00,64.0,27.0,-100.00,South,183,10.0,19.0,25,0.00,,,0.00,202.000000,,2013-04-28 00:22:00,
2013-04-27 19:32:00,64.0,27.0,-100.00,South,183,10.0,19.0,25,0.00,,,0.00,202.000000,,2013-04-28 00:32:00,
2013-04-27 19:43:00,64.0,27.0,-100.00,South,183,10.0,19.0,25,0.00,,,0.00,202.000000,,2013-04-28 00:43:00,
2013-04-27 19:52:00,64.0,27.0,-100.00,South,183,10.0,19.0,25,0.00,,,0.00,202.000000,,2013-04-28 00:52:00,
2013-04-27 20:01:00,64.0,27.0,-100.00,South,183,10.0,19.0,25,0.00,,,0.00,202.000000,,2013-04-28 01:01:00,
2013-04-27 20:22:00,61.0,29.0,-100.00,South,171,8.0,16.0,29,0.00,,,0.00,42.000000,,2013-04-28 01:22:00,
2013-04-27 20:32:00,61.0,29.0,-100.00,South,171,8.0,16.0,29,0.00,,,0.00,42.000000,,2013-04-28 01:32:00,
2013-04-27 20:42:00,61.0,29.0,-100.00,South,171,8.0,16.0,29,0.00,,,0.00,42.000000,,2013-04-28 01:42:00,
2013-04-27 20:52:00,61.0,29.0,-100.00,South,171,8.0,16.0,29,0.00,,,0.00,42.000000,,2013-04-28 01:52:00,
2013-04-27 21:02:00,61.0,29.0,-100.00,South,171,8.0,16.0,29,0.00,,,0.00,42.000000,,2013-04-28 02:02:00,
2013-04-27 21:32:00,58.0,28.0,-100.00,South,175,7.0,11.0,32,0.00,,,0.00,1.000000,,2013-04-28 02:32:00,
2013-04-27 21:42:00,58.0,28.0,-100.00,South,175,7.0,11.0,32,0.00,,,0.00,1.000000,,2013-04-28 02:42:00,
2013-04-27 21:52:00,58.0,28.0,-100.00,South,175,7.0,11.0,32,0.00,,,0.00,1.000000,,2013-04-28 02:52:00,
2013-04-27 22:01:00,58.0,28.0,-100.00,South,175,7.0,11.0,32,0.00,,,0.00,1.000000,,2013-04-28 03:01:00,
2013-04-27 22:22:00,56.0,27.0,-100.00,SSE,167,10.0,15.0,33,0.00,,,0.00,0.000000,,2013-04-28 03:22:00,
2013-04-27 22:33:00,56.0,27.0,-100.00,SSE,167,10.0,15.0,33,0.00,,,0.00,0.000000,,2013-04-28 03:33:00,
2013-04-27 22:43:00,56.0,27.0,-100.00,SSE,167,10.0,15.0,33,0.00,,,0.00,0.000000,,2013-04-28 03:43:00,
2013-04-27 22:53:00,56.0,27.0,-100.00,SSE,167,10.0,15.0,33,0.00,,,0.00,0.000000,,2013-04-28 03:53:00,
2013-04-27 23:02:00,56.0,27.0,-100.00,SSE,167,10.0,15.0,33,0.00,,,0.00,0.000000,,2013-04-28 04:02:00,
2013-04-27 23:32:00,54.0,29.0,-100.00,South,182,9.0,16.0,38,0.00,,,0.00,0.000000,,2013-04-28 04:32:00,
2013-04-27 23:43:00,54.0,29.0,-100.00,South,182,9.0,16.0,38,0.00,,,0.00,0.000000,,2013-04-28 04:43:00,
2013-04-27 23:53:00,54.0,29.0,-100.00,South,182,9.0,16.0,38,0.00,,,0.00,0.000000,,2013-04-28 04:53:00,